Find Starlink 32716

NORAD ID: 63031 Int'l Des: 2025-034 Owner: SPXS Country: US Constellation: starlink operational
LEOCIRCULAR

Current View

Loading 3D Globe...

About Starlink 32716

Starlink 32716 (NORAD 63031) is a starlink constellation satellite (v2 mini) launched Feb 18, 2025 by SPXS of US. It operates in LEO, CIRCULAR orbit with a mass of 730.00 kg.

About Starlink 32716

Description loading...

Upcoming Passes

Passes for default location (London). Set your location on the main map for personalized predictions.

Altitude History

Loading altitude history...

Two-Line Element Set

1 63031U 25034C 26163.29696131 .00035263 00000-0 10497-2 0 9994
2 63031 53.1587 177.8327 0001228 71.2661 288.8474 15.34406395 73589
Epoch: Jun 12, 2026 • Age: 26 hours

Current Status

Altitude 463.2 km
Velocity 7.64 km/s
Sub-Earth Point 3.24°N, 44.82°W
Launch Date Feb 18, 2025
Age 1.3 years
Type internet

Technical Details

Classification Payload
Mass 730.00 kg
Dry Mass 700.00 kg
Total Mass 730.00 kg
Length 0.30 m
Diameter 4.10 m
Span 29.00 m
Shape Box + pan
Manufacturer SPXS
Bus Type Starlink V2M
Phase Status In Orbit
Owner/State SPXS/US

Most Searched